Hourly Weather Roundup
Issued by NWS

Home | Current Version | Previous Version | Text Only | Print | Product List | Glossary On
Versions: 1 2 3 4 5 6 7 8 9 10 11 12 13 14 15 16 17 18 19 20 21 22 23 24 25 26 27 28 29 30 31 32 33 34 35 36 37 38 39 40 41 42 43 44 45 46 47 48 49 50
000
NZUS43 KILX 060610
HWRCRS

CRS HOURLY WEATHER ROUNDUP
NATIONAL WEATHER SERVICE, LINCOLN IL
100 AM CDT MON JUL 06 2015


CITY           SKY/WX    TMP DP  RH WIND       PRES   REMARKS
CHAMPAIGN      CLEAR     68  65  90 S5        30.03S FOG
LAWRENCEVILLE  CLEAR     71  68  90 SE5       30.04F FOG
PEORIA         CLEAR     73  64  73 S7        30.00R
SPRINGFIELD    CLEAR     73  65  75 S8        30.01R
$$


CITY           SKY/WX    TMP DP  RH WIND       PRES   REMARKS
BLOOMINGTON    CLEAR     68  65  90 S6        30.04R
DECATUR        CLEAR     70  64  81 S6        30.02S
EFFINGHAM      CLEAR     68  65  90 CALM      30.04S FOG
FLORA          CLEAR     68  67  97 CALM      30.04S FOG
GALESBURG      CLEAR     69  65  89 SE5       29.98F
JACKSONVILLE   CLEAR     74  68  80 SE10      29.99R
LACON          CLEAR     68  64  85 S3        29.99R
LINCOLN        CLEAR     68  64  87 CALM      30.02R FOG
LITCHFIELD     CLEAR     68  64  88 S5        30.02  FOG

CITY           SKY/WX    TMP DP  RH WIND       PRES   REMARKS
MACOMB         CLEAR     68  67  96 S3        30.00S FOG
MATTOON          N/A     70  68  93 S5        30.02F FOG
MOLINE         CLEAR     70  65  84 SE7       29.96R HAZE
OLNEY          CLEAR     70  68  94 CALM      30.03F FOG
PARIS          PTCLDY    69  68  97 SE5       30.04F FOG
PONTIAC        CLEAR     66  65  96 S6        30.02S FOG
QUINCY         CLEAR     73  68  84 S8        29.97R HAZE
RANTOUL        CLEAR     67  66  96 CALM      30.03R FOG
ROBINSON       CLEAR     71  68  92 S5        30.04F
TAYLORVILLE    CLEAR     68  64  88 SE6       30.02R
TERRE HAUTE    PTCLDY    71  68  90 S5        30.04F
$$


CITY           SKY/WX    TMP DP  RH WIND       PRES   REMARKS
BURLINGTON     CLEAR     73  69  87 S9        29.96R FOG
CHICAGO        CLEAR     68  61  78 S6        29.99F
DES MOINES     CLOUDY    77  70  79 S15G23    29.85F
EVANSVILLE     CLEAR     72  68  87 CALM      30.04F FOG
INDIANAPOLIS   CLEAR     69  63  81 S7        30.04F
KANSAS CITY    CLOUDY    79  70  74 S13       29.90S HX  82
MILWAUKEE      PTCLDY    68  59  73 S6        29.98S
ST LOUIS       CLEAR     78  68  71 S6        30.00S HX  80
$$




USA.gov is the U.S. government's official web portal to all federal, state and local government web resources and services.